Location: ????????
(60.5616°N, 46.8254°E)
Time: 16:26:42
(UTC+00:00)

CZ-2D R/B - Pass Details

Date: 18 February 2020
Orbit: 792 x 845 km, 98.7° (Epoch: 30 March)

Event Time Altitude Azimuth Distance (km) Brightness Sun altitude
Rises 22:52:54 0° 18° (NNE) 3,309 6.2 -37.2°
Reaches altitude 10° 22:55:14 10° 20° (NNE) 2,375 5.2 -37.1°
Enters shadow 22:57:45 29° 26° (NNE) 1,430 3.8 -36.9°
